Flag for Canada Weather past 2 weeks in Mount Pearl, Newfoundland and Labrador, Canada

Now
34 °F

Drizzle. Fog.


Feels Like: 22 °F
Forecast: 33 / 38 °F
Wind: 21 mph from Northeast

Location: St. John's


UV Index: 0 (Low)

Visibility: 0 mi


Pressure: 29.35 "Hg

Humidity: 100%

Dew point: 34 °F

Location of Mount PearlLocation

Historic Weather in Mount Pearl

°F

Mount Pearl temperature yesterday

Maximum temperature yesterday: 34 °F (at 6:30 PM)
Minimum temperature yesterday: 30 °F (at 12:30 AM)
Average temperature yesterday: 32 °F

Past Weeks' High & Low Weather Summary

 TemperatureHumidityPressure
High64 °F (Apr 16, 1:30 PM)100% (Apr 10, 4:30 AM)30.77 "Hg (Apr 10, 4:30 AM)
Low21 °F (Apr 18, 6:30 AM)37% (Apr 11, 12:30 PM)29.35 "Hg (Apr 10, 4:30 AM)
Average36 °F83%30.07 "Hg
* Reported Apr 10 4:30 AM — Apr 25 4:30 AM, Mount Pearl, Weather by CustomWeather, © 2014

Note: Actual official high and low records may vary slightly from our data, if they occured in-between our weather recording intervals... More about our weather records

Advertising

Historic Weather Conditions — Data for Previous 24 hours

 ConditionsComfort  
Time TempWeatherWind HumidityBarometerVisibility
4:30 AM
Apr 25
34 °FDrizzle. Fog.21 mph93%29.38 "Hg0 mi
3:30 AM34 °FDrizzle. Fog.21 mph100%29.41 "Hg0 mi
2:30 AM34 °FDrizzle. Fog.21 mph100%29.43 "Hg1 mi
1:30 AM34 °FDrizzle. Fog.22 mph100%29.47 "Hg1 mi
12:30 AM34 °FDrizzle. Fog.29 mph100%29.50 "Hg1 mi
11:30 PM
Apr 24
34 °FDrizzle. Fog.23 mph100%29.53 "Hg1 mi
10:30 PM34 °FDrizzle. Fog.23 mph100%29.56 "Hg1 mi
9:30 PM34 °FDrizzle. Fog.25 mph100%29.59 "Hg1 mi
8:30 PM34 °FLight rain. Fog.25 mph100%29.59 "Hg1 mi
7:30 PM32 °FLight rain. Fog.24 mph100%29.60 "Hg1 mi
6:30 PM34 °FLight rain. Fog.28 mph100%29.60 "Hg1 mi
5:30 PM32 °FLight rain. Ice fog.23 mph100%29.63 "Hg5 mi
4:30 PM32 °FLight freezing rain. Low clouds.21 mph93%29.64 "Hg8 mi
3:30 PM32 °FLow clouds.18 mph93%29.67 "Hg10 mi
2:30 PM32 °FMostly cloudy.20 mph93%29.70 "Hg12 mi
1:30 PM32 °FMore clouds than sun.18 mph93%29.70 "Hg15 mi
12:30 PM32 °FLight freezing rain. Low clouds.22 mph93%29.72 "Hg12 mi
11:30 AM32 °FLight freezing rain. More clouds than sun.21 mph93%29.72 "Hg15 mi
10:30 AM32 °FOvercast.20 mph93%29.72 "Hg15 mi
9:30 AM32 °FOvercast.20 mph93%29.72 "Hg15 mi
8:30 AM32 °FOvercast.23 mph87%29.71 "Hg15 mi
7:30 AM30 °FOvercast.21 mph93%29.71 "Hg15 mi
6:30 AM30 °FMostly cloudy.20 mph93%29.69 "Hg15 mi
Weather by CustomWeather, © 2014

See weather overview